| time (UTC) | temp F | wind direction | speed knots | gust knots | rain 1hr in | rain 24hr in | rain mn in | humidity % | barometer mb |
| 20260504204314 | 67 | 280 | 2.6 | 2.6 | 0.00 | 0.00 | 0.00 | 54 | 1010.2 |
| 20260504203813 | 67 | 251 | 1.7 | 1.7 | 0.00 | 0.00 | 0.00 | 54 | 1010.0 |
| 20260504203309 | 68 | 192 | 3.5 | 7.0 | 0.00 | 0.00 | 0.00 | 53 | 1010.0 |
| 20260504202804 | 68 | 282 | 1.7 | 2.6 | 0.00 | 0.00 | 0.00 | 52 | 1010.1 |
| 20260504202304 | 69 | 254 | 1.7 | 2.6 | 0.00 | 0.00 | 0.00 | 52 | 1010.1 |
| 20260504201759 | 68 | 230 | 1.7 | 1.7 | 0.00 | 0.00 | 0.00 | 52 | 1010.2 |
| 20260504201256 | 67 | 210 | 3.5 | 6.1 | 0.00 | 0.00 | 0.00 | 52 | 1010.3 |
| 20260504200754 | 69 | 211 | 2.6 | 4.3 | 0.00 | 0.00 | 0.00 | 51 | 1010.4 |
| 20260504200249 | 69 | 235 | 1.7 | 1.7 | 0.00 | 0.00 | 0.00 | 51 | 1010.6 |
| 20260504195746 | 68 | 264 | 6.1 | 7.8 | 0.00 | 0.00 | 0.00 | 51 | 1010.5 |
| 20260504195242 | 68 | 244 | 0.9 | 0.9 | 0.00 | 0.00 | 0.00 | 53 | 1010.4 |
| 20260504194739 | 68 | 255 | 2.6 | 4.3 | 0.00 | 0.00 | 0.00 | 51 | 1010.4 |
| 20260504194235 | 68 | 242 | 0.0 | 0.9 | 0.00 | 0.00 | 0.00 | 52 | 1010.7 |
| 20260504193732 | 68 | 260 | 2.6 | 2.6 | 0.00 | 0.00 | 0.00 | 51 | 1010.6 |
| 20260504193229 | 68 | 246 | 0.9 | 1.7 | 0.00 | 0.00 | 0.00 | 50 | 1010.7 |
| 20260504192728 | 69 | 264 | 0.9 | 0.9 | 0.00 | 0.00 | 0.00 | 50 | 1010.7 |
| 20260504192225 | 69 | 280 | 1.7 | 1.7 | 0.00 | 0.00 | 0.00 | 49 | 1010.7 |
| 20260504191724 | 69 | 308 | 2.6 | 4.3 | 0.00 | 0.00 | 0.00 | 50 | 1011.0 |
| 20260504191220 | 69 | 210 | 4.3 | 6.1 | 0.00 | 0.00 | 0.00 | 49 | 1011.1 |
| 20260504190715 | 69 | 279 | 1.7 | 2.6 | 0.00 | 0.00 | 0.00 | 49 | 1011.1 |
| 20260504190212 | 68 | 237 | 3.5 | 5.2 | 0.00 | 0.00 | 0.00 | 50 | 1011.1 |
| 20260504185709 | 68 | 261 | 1.7 | 1.7 | 0.00 | 0.00 | 0.00 | 49 | 1010.9 |
| 20260504185205 | 67 | 251 | 1.7 | 1.7 | 0.00 | 0.00 | 0.00 | 51 | 1011.3 |
| 20260504184702 | 66 | 240 | 1.7 | 1.7 | 0.00 | 0.00 | 0.00 | 51 | 1011.3 |
| 20260504184157 | 67 | 215 | 1.7 | 1.7 | 0.00 | 0.00 | 0.00 | 51 | 1011.5 |
| 20260504183654 | 67 | 265 | 1.7 | 1.7 | 0.00 | 0.00 | 0.00 | 50 | 1011.3 |
| 20260504183151 | 68 | 257 | 2.6 | 2.6 | 0.00 | 0.00 | 0.00 | 49 | 1011.3 |
| 20260504182649 | 68 | 209 | 6.1 | 7.8 | 0.00 | 0.00 | 0.00 | 48 | 1011.5 |
| 20260504182146 | 70 | 227 | 4.3 | 7.8 | 0.00 | 0.00 | 0.00 | 46 | 1011.2 |
| 20260504181644 | 70 | 264 | 1.7 | 1.7 | 0.00 | 0.00 | 0.00 | 47 | 1011.6 |
| 20260504181141 | 69 | 232 | 1.7 | 1.7 | 0.00 | 0.00 | 0.00 | 48 | 1011.3 |
| 20260504180640 | 69 | 306 | 0.9 | 1.7 | 0.00 | 0.00 | 0.00 | 47 | 1011.5 |
| 20260504180138 | 69 | 231 | 1.7 | 1.7 | 0.00 | 0.00 | 0.00 | 47 | 1011.7 |
| 20260504175635 | 69 | 276 | 3.5 | 7.0 | 0.00 | 0.00 | 0.00 | 49 | 1011.7 |
| 20260504175131 | 68 | 258 | 3.5 | 5.2 | 0.00 | 0.00 | 0.00 | 48 | 1011.6 |
| 20260504174630 | 68 | 223 | 2.6 | 4.3 | 0.00 | 0.00 | 0.00 | 48 | 1011.9 |
| 20260504174126 | 69 | 294 | 1.7 | 1.7 | 0.00 | 0.00 | 0.00 | 48 | 1012.1 |
| 20260504173623 | 68 | 243 | 5.2 | 8.7 | 0.00 | 0.00 | 0.00 | 48 | 1012.0 |
| 20260504173121 | 68 | 273 | 5.2 | 7.0 | 0.00 | 0.00 | 0.00 | 48 | 1012.1 |
| 20260504172617 | 68 | 234 | 5.2 | 7.0 | 0.00 | 0.00 | 0.00 | 48 | 1011.9 |
| 20260504172114 | 68 | 219 | 1.7 | 2.6 | 0.00 | 0.00 | 0.00 | 50 | 1012.2 |
| 20260504171610 | 68 | 276 | 3.5 | 6.1 | 0.00 | 0.00 | 0.00 | 49 | 1012.2 |
| 20260504171108 | 67 | 221 | 5.2 | 7.0 | 0.00 | 0.00 | 0.00 | 49 | 1012.4 |
| 20260504170603 | 67 | 275 | 5.2 | 7.0 | 0.00 | 0.00 | 0.00 | 48 | 1012.4 |
| 20260504150947 | 62 | 262 | 3.5 | 5.2 | 0.00 | 0.00 | 0.00 | 53 | 1013.3 |
| 20260504150444 | 61 | 197 | 1.7 | 2.6 | 0.00 | 0.00 | 0.00 | 53 | 1013.3 |
| 20260504140910 | 58 | 270 | 1.7 | 1.7 | 0.00 | 0.00 | 0.00 | 56 | 1013.9 |
| 20260504140406 | 57 | 191 | 2.6 | 5.2 | 0.00 | 0.00 | 0.00 | 58 | 1013.7 |
| 20260504130331 | 52 | 264 | 1.7 | 2.6 | 0.00 | 0.00 | 0.00 | 62 | 1014.1 |
| 20260504120254 | 46 | 282 | 0.9 | 0.9 | 0.00 | 0.00 | 0.00 | 70 | 1014.0 |
| 20260504110218 | 41 | 267 | 0.0 | 0.0 | 0.00 | 0.00 | 0.00 | 80 | 1014.1 |
| 20260504100142 | 39 | 264 | 0.0 | 0.0 | 0.00 | 0.00 | 0.00 | 79 | 1014.2 |
| 20260504090105 | 42 | 256 | 0.0 | 0.0 | 0.00 | 0.00 | 0.00 | 75 | 1014.8 |
| 20260504081535 | 41 | 265 | 0.0 | 0.0 | 0.00 | 0.00 | 0.00 | 75 | 1014.8 |
| 20260504081031 | 40 | 271 | 0.0 | 0.0 | 0.00 | 0.00 | 0.00 | 76 | 1014.5 |
| 20260504080527 | 39 | 255 | 0.0 | 0.0 | 0.00 | 0.00 | 0.00 | 78 | 1014.9 |
| 20260504050340 | 37 | 270 | 0.0 | 0.0 | 0.00 | 0.00 | 0.00 | 82 | 1015.7 |
| 20260504045837 | 37 | 270 | 0.0 | 0.0 | 0.00 | 0.00 | 0.00 | 81 | 1015.6 |
| 20260504045332 | 37 | 270 | 0.0 | 0.0 | 0.00 | 0.00 | 0.00 | 81 | 1015.6 |
| 20260504044829 | 37 | 270 | 0.0 | 0.0 | 0.00 | 0.00 | 0.00 | 81 | 1015.7 |
| 20260504044327 | 37 | 270 | 0.0 | 0.0 | 0.00 | 0.00 | 0.00 | 80 | 1015.5 |
| 20260504043824 | 38 | 270 | 0.0 | 0.0 | 0.00 | 0.00 | 0.00 | 80 | 1015.6 |
| 20260504043321 | 38 | 270 | 0.0 | 0.0 | 0.00 | 0.00 | 0.00 | 79 | 1015.6 |
| 20260504042818 | 38 | 270 | 0.0 | 0.0 | 0.00 | 0.00 | 0.00 | 78 | 1015.6 |
| 20260504042314 | 39 | 270 | 0.0 | 0.0 | 0.00 | 0.00 | 0.00 | 76 | 1015.5 |
| 20260504041811 | 40 | 270 | 0.0 | 0.0 | 0.00 | 0.00 | 0.00 | 74 | 1015.5 |
| 20260504041307 | 40 | 270 | 0.0 | 0.0 | 0.00 | 0.00 | 0.00 | 73 | 1015.4 |
| 20260504040803 | 40 | 263 | 0.0 | 0.0 | 0.00 | 0.00 | 0.00 | 72 | 1015.4 |
| 20260504040301 | 40 | 265 | 0.0 | 0.0 | 0.00 | 0.00 | 0.00 | 72 | 1015.3 |
| 20260504035756 | 40 | 270 | 0.0 | 0.0 | 0.00 | 0.00 | 0.00 | 74 | 1015.3 |
| 20260504035254 | 40 | 269 | 0.0 | 0.0 | 0.00 | 0.00 | 0.00 | 73 | 1015.5 |
| 20260504034751 | 40 | 276 | 0.9 | 0.9 | 0.00 | 0.00 | 0.00 | 72 | 1015.8 |
| 20260504034249 | 39 | 265 | 0.0 | 0.0 | 0.00 | 0.00 | 0.00 | 76 | 1015.5 |
| 20260504033746 | 39 | 265 | 0.0 | 0.0 | 0.00 | 0.00 | 0.00 | 76 | 1015.6 |
| 20260504033243 | 39 | 265 | 0.0 | 0.0 | 0.00 | 0.00 | 0.00 | 76 | 1015.4 |
| 20260504032740 | 40 | 263 | 0.0 | 0.0 | 0.00 | 0.00 | 0.00 | 75 | 1015.5 |
| 20260504032237 | 40 | 265 | 0.0 | 0.0 | 0.00 | 0.00 | 0.00 | 74 | 1015.7 |
| 20260504031734 | 40 | 265 | 0.0 | 0.0 | 0.00 | 0.00 | 0.00 | 74 | 1015.4 |
| 20260504031232 | 41 | 267 | 0.0 | 0.0 | 0.00 | 0.00 | 0.00 | 73 | 1015.5 |
| 20260504030727 | 41 | 268 | 0.0 | 0.0 | 0.00 | 0.00 | 0.00 | 72 | 1015.6 |
| 20260504030225 | 41 | 268 | 0.0 | 0.0 | 0.00 | 0.00 | 0.00 | 72 | 1015.7 |
| 20260504025721 | 41 | 268 | 0.0 | 0.0 | 0.00 | 0.00 | 0.00 | 70 | 1015.8 |
| 20260504025218 | 42 | 268 | 0.0 | 0.0 | 0.00 | 0.00 | 0.00 | 70 | 1015.5 |
| 20260504024715 | 42 | 266 | 0.0 | 0.0 | 0.00 | 0.00 | 0.00 | 69 | 1015.6 |
| 20260504024211 | 42 | 266 | 0.0 | 0.0 | 0.00 | 0.00 | 0.00 | 69 | 1015.6 |
| 20260504023708 | 42 | 260 | 0.9 | 0.9 | 0.00 | 0.00 | 0.00 | 69 | 1015.7 |
| 20260504023204 | 42 | 267 | 0.0 | 0.0 | 0.00 | 0.00 | 0.00 | 70 | 1015.7 |
| 20260504022700 | 42 | 268 | 0.0 | 0.0 | 0.00 | 0.00 | 0.00 | 69 | 1015.7 |
| 20260504022156 | 42 | 273 | 1.7 | 1.7 | 0.00 | 0.00 | 0.00 | 70 | 1015.8 |
| 20260504021654 | 42 | 263 | 0.0 | 0.0 | 0.00 | 0.00 | 0.00 | 71 | 1015.7 |
| 20260504021151 | 42 | 263 | 0.0 | 0.0 | 0.00 | 0.00 | 0.00 | 72 | 1015.7 |
| 20260504020648 | 42 | 263 | 0.0 | 0.0 | 0.00 | 0.00 | 0.00 | 70 | 1015.6 |
| 20260504020143 | 42 | 264 | 0.0 | 0.0 | 0.00 | 0.00 | 0.00 | 69 | 1016.0 |
| 20260504015641 | 42 | 263 | 0.0 | 0.0 | 0.00 | 0.00 | 0.00 | 68 | 1015.8 |
| 20260504015137 | 43 | 264 | 0.0 | 0.0 | 0.00 | 0.00 | 0.00 | 69 | 1015.7 |
| 20260504014632 | 43 | 264 | 0.0 | 0.0 | 0.00 | 0.00 | 0.00 | 68 | 1015.8 |
| 20260504014130 | 43 | 260 | 0.0 | 0.0 | 0.00 | 0.00 | 0.00 | 66 | 1015.5 |
| 20260504013628 | 43 | 261 | 0.0 | 0.0 | 0.00 | 0.00 | 0.00 | 68 | 1015.6 |
| 20260504013124 | 43 | 261 | 0.0 | 0.0 | 0.00 | 0.00 | 0.00 | 66 | 1015.6 |
| 20260504012622 | 44 | 260 | 0.0 | 0.0 | 0.00 | 0.00 | 0.00 | 66 | 1015.5 |
| 20260504012120 | 44 | 262 | 0.0 | 0.0 | 0.00 | 0.00 | 0.00 | 66 | 1015.6 |
| 20260504011616 | 44 | 263 | 0.0 | 0.0 | 0.00 | 0.00 | 0.00 | 66 | 1015.3 |
| 20260504011113 | 45 | 261 | 0.0 | 0.0 | 0.00 | 0.00 | 0.00 | 64 | 1015.4 |
| 20260504010608 | 45 | 260 | 0.0 | 0.0 | 0.00 | 0.00 | 0.00 | 63 | 1015.5 |
| 20260504010105 | 45 | 257 | 0.9 | 0.9 | 0.00 | 0.00 | 0.00 | 61 | 1015.4 |
| 20260504005601 | 45 | 252 | 0.0 | 0.0 | 0.00 | 0.00 | 0.00 | 62 | 1015.5 |
| 20260504005059 | 46 | 264 | 0.0 | 0.0 | 0.00 | 0.00 | 0.00 | 61 | 1015.5 |
| 20260504004556 | 47 | 262 | 0.0 | 0.0 | 0.00 | 0.00 | 0.00 | 60 | 1015.5 |
| 20260504004053 | 47 | 260 | 0.0 | 0.0 | 0.00 | 0.00 | 0.00 | 59 | 1015.5 |
| 20260504003549 | 48 | 267 | 0.0 | 0.0 | 0.00 | 0.00 | 0.00 | 57 | 1015.3 |
| 20260504003046 | 48 | 267 | 0.9 | 0.9 | 0.00 | 0.00 | 0.00 | 55 | 1015.4 |
| 20260504002543 | 48 | 275 | 0.9 | 0.9 | 0.00 | 0.00 | 0.00 | 55 | 1015.4 |
| 20260504002041 | 48 | 275 | 0.0 | 0.9 | 0.00 | 0.00 | 0.00 | 56 | 1015.5 |
| 20260504001538 | 48 | 269 | 0.9 | 0.9 | 0.00 | 0.00 | 0.00 | 54 | 1015.4 |
| 20260504001034 | 49 | 204 | 1.7 | 2.6 | 0.00 | 0.00 | 0.00 | 54 | 1015.2 |
| 20260504000531 | 49 | 245 | 0.9 | 0.9 | 0.00 | 0.00 | 0.00 | 54 | 1015.2 |
| 20260504000029 | 49 | 249 | 0.9 | 1.7 | 0.00 | 0.00 | 0.00 | 53 | 1015.2 |
| 20260503235527 | 49 | 270 | 0.9 | 1.7 | 0.00 | 0.00 | 0.00 | 53 | 1015.1 |
| 20260503235023 | 49 | 277 | 0.9 | 1.7 | 0.00 | 0.00 | 0.00 | 52 | 1015.3 |
| 20260503234521 | 50 | 177 | 1.7 | 2.6 | 0.00 | 0.00 | 0.00 | 53 | 1015.3 |
| 20260503234019 | 50 | 187 | 2.6 | 4.3 | 0.00 | 0.00 | 0.00 | 52 | 1015.3 |
| 20260503233515 | 50 | 186 | 2.6 | 2.6 | 0.00 | 0.00 | 0.00 | 51 | 1015.1 |
| 20260503233011 | 50 | 277 | 2.6 | 4.3 | 0.00 | 0.00 | 0.00 | 51 | 1015.1 |
| 20260503232509 | 50 | 273 | 0.9 | 1.7 | 0.00 | 0.00 | 0.00 | 51 | 1015.0 |
| 20260503232006 | 51 | 280 | 0.0 | 0.9 | 0.00 | 0.00 | 0.00 | 50 | 1015.0 |
| 20260503231504 | 50 | 282 | 2.6 | 4.3 | 0.00 | 0.00 | 0.00 | 50 | 1015.0 |
| 20260503231000 | 50 | 266 | 0.9 | 0.9 | 0.00 | 0.00 | 0.00 | 52 | 1015.2 |
| 20260503230457 | 51 | 260 | 1.7 | 1.7 | 0.00 | 0.00 | 0.00 | 50 | 1015.2 |
| 20260503225954 | 51 | 206 | 2.6 | 2.6 | 0.00 | 0.00 | 0.00 | 50 | 1015.3 |
| 20260503225451 | 52 | 265 | 1.7 | 2.6 | 0.00 | 0.00 | 0.00 | 49 | 1015.3 |
| 20260503224946 | 52 | 268 | 1.7 | 1.7 | 0.00 | 0.00 | 0.00 | 49 | 1015.2 |
| 20260503224444 | 51 | 274 | 4.3 | 6.1 | 0.00 | 0.00 | 0.00 | 49 | 1015.4 |
| 20260503223941 | 51 | 267 | 2.6 | 6.1 | 0.00 | 0.00 | 0.00 | 49 | 1015.4 |
| 20260503223439 | 52 | 276 | 0.9 | 0.9 | 0.00 | 0.00 | 0.00 | 48 | 1015.3 |
| 20260503222934 | 52 | 251 | 1.7 | 1.7 | 0.00 | 0.00 | 0.00 | 48 | 1015.3 |
| 20260503222433 | 53 | 227 | 3.5 | 4.3 | 0.00 | 0.00 | 0.00 | 46 | 1015.2 |
| 20260503221931 | 54 | 284 | 0.9 | 1.7 | 0.00 | 0.00 | 0.00 | 45 | 1015.1 |
| 20260503221429 | 54 | 283 | 3.5 | 5.2 | 0.00 | 0.00 | 0.00 | 46 | 1015.3 |
| 20260503220926 | 53 | 269 | 0.9 | 1.7 | 0.00 | 0.00 | 0.00 | 47 | 1015.2 |
| 20260503220422 | 54 | 194 | 2.6 | 2.6 | 0.00 | 0.00 | 0.00 | 46 | 1015.2 |
| 20260503215919 | 54 | 270 | 0.9 | 1.7 | 0.00 | 0.00 | 0.00 | 47 | 1015.3 |
| 20260503215416 | 53 | 253 | 1.7 | 1.7 | 0.00 | 0.00 | 0.00 | 47 | 1015.2 |
| 20260503214914 | 54 | 211 | 2.6 | 4.3 | 0.00 | 0.00 | 0.00 | 46 | 1015.1 |
| 20260503214411 | 53 | 269 | 1.7 | 1.7 | 0.00 | 0.00 | 0.00 | 48 | 1015.4 |
| 20260503213908 | 53 | 231 | 4.3 | 6.1 | 0.00 | 0.00 | 0.00 | 46 | 1015.4 |
| 20260503213406 | 53 | 272 | 1.7 | 1.7 | 0.00 | 0.00 | 0.00 | 46 | 1015.1 |
| 20260503212902 | 53 | 215 | 1.7 | 1.7 | 0.00 | 0.00 | 0.00 | 47 | 1015.3 |
| 20260503212400 | 53 | 103 | 2.6 | 5.2 | 0.00 | 0.00 | 0.00 | 47 | 1015.3 |
| 20260503211857 | 52 | 266 | 0.0 | 0.0 | 0.00 | 0.00 | 0.00 | 47 | 1015.2 |
| 20260503211354 | 52 | 217 | 0.9 | 1.7 | 0.00 | 0.00 | 0.00 | 48 | 1015.4 |
| 20260503210849 | 52 | 268 | 1.7 | 1.7 | 0.00 | 0.00 | 0.00 | 47 | 1015.5 |
| 20260503210347 | 52 | 266 | 3.5 | 6.1 | 0.00 | 0.00 | 0.00 | 47 | 1015.4 |
| 20260503205841 | 54 | 256 | 1.7 | 1.7 | 0.00 | 0.00 | 0.00 | 45 | 1015.5 |
| 20260503205338 | 53 | 184 | 1.7 | 2.6 | 0.00 | 0.00 | 0.00 | 46 | 1015.4 |
| 20260503204835 | 52 | 253 | 2.6 | 4.3 | 0.00 | 0.00 | 0.00 | 47 | 1015.3 |